sat.trackr.live / text

‹ back to catalog

ONEWEB-0304

NORAD 49092 · 2021-075T

PAYLOAD ACTIVE UNKNOWN

§ Identity

Operator
Country
UK
Launch date
2021-08-21
Launch site
TYMSC
Launch vehicle
Mass (kg)
RCS (m²)

Purposes: comms

External: N2YO · Heavens-Above · Gunter

§ Orbital elements

Epoch: 2026-09-19T13:22:05.721888Z

Period
109.29 min
Inclination
87.9199°
Eccentricity
0.0001865
Mean motion
13.17650656 rev/d
Perigee alt
1,192.3 km
Apogee alt
1,195.1 km
Semi-major
7,571.8 km
B*
2.3179e-5
RAAN
347.1303°
Arg perigee
105.2891°
Mean anomaly
254.8447°
Rev number
24,600

§ Raw data

ONEWEB-03041 49092U 21075T   26262.55701067  .00000022  00000+0  23179-4 0  99972 49092  87.9199 347.1303 0001865 105.2891 254.8447 13.17650656246002

JSON: /api/v1/satellites/49092 · /tle

For live sub-satellite position, see the globe view (requires WebGL).

§ Visibility from observer

Set your observer location to see the next 7 days of passes ≥ 10°. The values pass through the URL so the page stays shareable.

No JS? Fill the form by hand. The geolocation button needs JavaScript.